Content
SEND FEEDBACK

Daily
Averages
Monthly
Summary
Canada

MONCTON, NEW BRUNSWICK


Home > North America > Canada > New Brunswick
Elevation: 232 feet     Latitude: 46 07N     Longitude: 064 41W

WEATHER
 
SELECT A DAY
Number of Records: 207,561;   Date Range: 1/1/95 - 11/26/14
 
SHARE

PRINT THIS DATA

[ ← Previous Day ]
WEATHER ALMANAC - MARCH 31, 2013
[ Next Day → ]
[ °C ]   °F
Weather ElementAverageHighLow
Temperature34.5 °F50 °F (4:00 pm)19.4 °F (7:00 am)
Dewpoint17.6 °F23 °F (11:00 am)8.6 °F (2:00 pm)
Humidity54.9 %93 % (7:00 am)13 % (3:00 pm)
Barometer30.06 in30.11 in (11:00 am)30.02 in (1:00 am)
Wind Speed5.6 mph11.5 mph (5:00 pm)
Weather ElementAverage
Visibility15 mi
Wind DirectionSE (139.7 °)

Weather ElementTotal
Precipitation---
Heating Degree Days30.3 (Base 65)
Averaged from 29 records on March 31, 2013
WEATHER CONDITIONS BREAKOUT
WIND DIRECTION BREAKOUT
WEATHER BY HOUR - MARCH 31, 2013
[ °C ]   °F
Local TimeTemperatureDewpointHumidityBarometerVisibilityWind DirectionWind SpeedGust SpeedPrecipitationEventsConditions
1:00 AM24.8 °F17.6 °F74 %30.02 in15.0 miCalmClear
2:00 AM21.2 °F17.6 °F86 %30.03 in15.0 miENE (60°)3.5 mphClear
3:00 AM22.0 °F17.0 °F73 %30.05 in15.0 miENE (60°)4.6 mph
3:00 AM21.2 °F17.6 °F86 %30.05 in15.0 miNE (50°)3.5 mphClear
4:00 AM21.2 °F17.6 °F86 %30.04 in15.0 miCalmClear
5:00 AM21.2 °F17.6 °F86 %30.04 in15.0 miCalmClear
6:00 AM21.2 °F17.6 °F86 %30.06 in15.0 miSSW (210°)6.9 mphClear
7:00 AM19.4 °F17.6 °F93 %30.08 in15.0 miSSW (210°)5.8 mphPartly Cloudy
8:00 AM21.2 °F19.4 °F93 %30.09 in15.0 miSW (220°)6.9 mphPartly Cloudy
9:00 AM27.0 °F20.0 °F67 %30.10 in15.0 miSW (230°)5.8 mphScattered Clouds
9:00 AM26.6 °F21.2 °F80 %30.10 in15.0 miSW (230°)4.6 mphPartly Cloudy
10:00 AM32.0 °F19.4 °F60 %30.10 in15.0 miSW (220°)5.8 mphClear
11:00 AM37.4 °F23.0 °F56 %30.11 in15.0 miSW (220°)3.5 mphClear
12:00 PM42.8 °F17.6 °F36 %30.10 in15.0 miCalmClear
1:00 PM44.6 °F19.4 °F37 %30.09 in15.0 miSW (220°)8.1 mphPartly Cloudy
2:00 PM46.4 °F8.6 °F22 %30.08 in15.0 miWSW (250°)4.6 mphPartly Cloudy
3:00 PM49.0 °F13.0 °F13 %30.06 in15.0 miSW (230°)3.5 mphClear
3:00 PM48.2 °F14.0 °F25 %30.06 in15.0 miWSW (250°)4.6 mphPartly Cloudy
4:00 PM50.0 °F15.8 °F26 %30.04 in15.0 miSouth (170°)5.8 mphPartly Cloudy
5:00 PM50.0 °F19.4 °F30 %30.04 in15.0 miSE (140°)11.5 mphPartly Cloudy
6:00 PM48.2 °F17.6 °F30 %30.04 in15.0 miEast (100°)11.5 mphPartly Cloudy
7:00 PM46.4 °F14.0 °F27 %30.04 in15.0 miSE (140°)10.4 mphScattered Clouds
8:00 PM42.8 °F14.0 °F31 %30.04 in15.0 miSE (140°)5.8 mphMostly Cloudy
8:39 PM35.6 °F19.4 °F52 %30.04 in15.0 miESE (110°)5.8 mphMostly Cloudy
9:00 PM35.0 °F21.0 °F43 %30.05 in15.0 miEast (90°)9.2 mphClear
9:00 PM35.6 °F21.2 °F56 %30.04 in15.0 miEast (90°)8.1 mphMostly Cloudy
10:00 PM37.4 °F15.8 °F41 %30.05 in15.0 miSSE (150°)6.9 mphMostly Cloudy
10:30 PM35.6 °F17.6 °F48 %30.04 in15.0 miSE (130°)8.1 mphOvercast
11:00 PM35.6 °F17.6 °F48 %30.04 in15.0 miSE (130°)6.9 mphOvercast
Hourly data recorded from CYQM, located miles away from Moncton, New Brunswick







STORIES FROM OUR PARTNERS